TimeMDT,TemperatureF,Dew PointF,Humidity,Sea Level PressureIn,VisibilityMPH,Wind Direction,Wind SpeedMPH,Gust SpeedMPH,PrecipitationIn,Events,Conditions,WindDirDegrees,DateUTC
12:55 AM,53.1,37.0,55,30.03,10.0,Calm,Calm,-,N/A,,Clear,0,2013-08-21 06:55:00
1:55 AM,46.9,37.0,68,30.04,10.0,NNE,3.5,-,N/A,,Clear,20,2013-08-21 07:55:00
2:55 AM,44.1,36.0,73,30.05,10.0,SW,4.6,-,N/A,,Clear,230,2013-08-21 08:55:00
3:55 AM,43.0,37.0,80,30.06,10.0,Calm,Calm,-,N/A,,Clear,0,2013-08-21 09:55:00
4:55 AM,43.0,37.9,82,30.07,10.0,Calm,Calm,-,N/A,,Clear,0,2013-08-21 10:55:00
5:55 AM,39.9,36.0,86,30.10,10.0,NW,3.5,-,N/A,,Clear,320,2013-08-21 11:55:00
6:55 AM,39.0,36.0,89,30.11,10.0,Calm,Calm,-,N/A,,Clear,0,2013-08-21 12:55:00
7:55 AM,48.0,41.0,77,30.11,8.0,WNW,4.6,-,N/A,,Clear,290,2013-08-21 13:55:00
8:55 AM,59.0,43.0,55,30.12,10.0,Calm,Calm,-,N/A,,Clear,0,2013-08-21 14:55:00
9:55 AM,66.0,39.9,38,30.12,10.0,North,6.9,-,N/A,,Clear,350,2013-08-21 15:55:00
10:55 AM,70.0,37.9,31,30.12,10.0,NNE,3.5,-,N/A,,Clear,30,2013-08-21 16:55:00
11:55 AM,72.0,37.9,29,30.11,10.0,Variable,3.5,-,N/A,,Clear,0,2013-08-21 17:55:00
12:55 PM,75.9,37.0,24,30.10,10.0,Calm,Calm,-,N/A,,Clear,0,2013-08-21 18:55:00
1:55 PM,78.1,34.0,20,30.09,10.0,Calm,Calm,-,N/A,,Clear,0,2013-08-21 19:55:00
2:55 PM,80.1,32.0,17,30.07,10.0,Variable,3.5,-,N/A,,Clear,0,2013-08-21 20:55:00
3:55 PM,82.9,27.0,13,30.04,10.0,Calm,Calm,-,N/A,,Clear,0,2013-08-21 21:55:00
4:55 PM,82.0,27.0,13,30.02,10.0,East,3.5,-,N/A,,Clear,80,2013-08-21 22:55:00
5:55 PM,84.0,28.0,13,30.01,10.0,NE,3.5,-,N/A,,Clear,50,2013-08-21 23:55:00
6:55 PM,82.0,30.0,15,30.00,10.0,Calm,Calm,-,N/A,,Clear,0,2013-08-22 00:55:00
7:55 PM,75.9,37.9,25,29.99,10.0,Calm,Calm,-,N/A,,Clear,0,2013-08-22 01:55:00
8:55 PM,70.0,39.9,33,29.99,10.0,Calm,Calm,-,N/A,,Clear,0,2013-08-22 02:55:00
9:55 PM,63.0,42.1,46,30.00,10.0,Calm,Calm,-,N/A,,Clear,0,2013-08-22 03:55:00
10:55 PM,59.0,42.1,53,30.01,10.0,Calm,Calm,-,N/A,,Clear,0,2013-08-22 04:55:00
11:55 PM,54.0,44.1,69,30.03,10.0,Calm,Calm,-,N/A,,Clear,0,2013-08-22 05:55:00